KINEIS-1E

Last updated on Mon Jun 22 2026 00:03:00 GMT+0000 (Coordinated Universal Time)

1 60083U 24114E 26172.49648436 .00000541 00000+0 77116-4 0 9996 2 60083 97.8943 195.8440 0002754 161.6642 198.4670 14.80647720108029
UTC large
Height (km)
Speed (km/s)
/
Latitude / Longitude
Inclination (degrees)
Orbital Period (minutes)
Azimuth
Elevation
Range (km)
Doppler Factor

Next 0 passes for location: London (51.5072 / 0.1276)

No passes found over London.
KINEIS-1E